Preview of NWS' New Version of Forecast
This preview is not operational and should not be used for support decisions.

Regional Weather Roundup (RWR)

Issued by National Weather Service (NWS)

                            
000
ASUS44 KMEG 201700
RWRTN 
TENNESSEE HOURLY STATE WEATHER ROUNDUP
NATIONAL WEATHER SERVICE MEMPHIS TN
1200 PM CDT TUE AUG 20 2019

TNZ002-004-019-021-049-052-054-088>092-201800-
WEST TENNESSEE
  
CITY           SKY/WX    TMP DP  RH WIND       PRES   REMARKS
MEMPHIS INTL   FAIR      92  76  59 VRB6      30.09F HX 104           
NWS MEMPHIS      N/A     94 N/A N/A MISG        N/A                   
JACKSON        FAIR      91  76  61 VRB7      30.09F HX 103           
DYERSBURG      PTSUNNY   91  78  65 S7        30.08F HX 106           
$$

TNZ008-025-027-028-033-062-065-066-201800-
NORTH MIDDLE TENNESSEE
  
CITY           SKY/WX    TMP DP  RH WIND       PRES   REMARKS
NASHVILLE      PTSUNNY   92  72  51 VRB3      30.11F HX  99           
CLARKSVILLE    FAIR      92  75  57 S6        30.08F HX 103           
SMYRNA         FAIR      90  75  61 VRB3      30.12F HX 100           
CROSSVILLE     FAIR      84  67  56 CALM      30.20F                  
$$

TNZ061-075-076-078-094-096-097-201800-
SOUTH MIDDLE TENNESSEE
  
CITY           SKY/WX    TMP DP  RH WIND       PRES   REMARKS
$$

TNZ017-018-042-046-047-201800-
NORTHEAST TENNESSEE
  
CITY           SKY/WX    TMP DP  RH WIND       PRES   REMARKS
TRI CITIES     FAIR      89  68  49 VRB3      30.17F HX  93           
$$

TNZ012-013-036-069-073-074-201800-
CENTRAL EAST TENNESSEE
  
CITY           SKY/WX    TMP DP  RH WIND       PRES   REMARKS
KNOXVILLE      FAIR      88  65  46 W6        30.13F HX  90           
OAK RIDGE      FAIR      89  68  49 CALM      30.15F HX  93           
$$

TNZ083-085-099-201800-
SOUTHEAST TENNESSEE
  
CITY           SKY/WX    TMP DP  RH WIND       PRES   REMARKS
CHATTANOOGA    FAIR      89  69  51 CALM      30.13F HX  93           
$$

SKY/WX REPORTED AS FAIR MEANS FEW OR NO CLOUDS BELOW
12 THOUSAND FEET.